Location: Sungai Bunut
(2.6333°N, 113.7333°E)
Time: 19:57:49
(UTC+00:00)

Cosmos 1025 Rocket - Pass Details

Date: 16 October 2021
Orbit: 594 x 617 km, 82.5° (Epoch: 08 December)

Event Time Altitude Azimuth Distance (km) Brightness Sun altitude
Rises 21:41:54 0° 175° (S) 2,884 6.7 -7.5°
Reaches altitude 10° 21:44:10 10° 170° (S) 1,976 5.9 -6.9°
Maximum altitude 21:48:26 52° 94° (E) 765 4.1 -5.9°
Drops below altitude 10° 21:52:39 10° 17° (NNE) 1,959 5.8 -4.8°
Sets 21:54:54 0° 12° (NNE) 2,858 6.5 -4.3°
